Donnes mto: Actuelle samedi, 31/10/2020 08:00
Date Horaire Temp. E. Hum. E. P.atmo. Pluie Vent Direction Direction Ensoleilleme Solaire P. de rose Temp au vent Rafales
31/10/2020 08:00 5,9 C 96 % 1024,6 hPa 0,0 l/m 0,0 km/h (0 Bft) S-SO 196 0 min 16 W/m 5,3 C 5,9 C 0,0 km/h (0 Bft)
31/10/2020 07:00 7,6 C 98 % 1024,2 hPa 0,0 l/m 0,0 km/h (0 Bft) S-SE 157 0 min 0 W/m 7,3 C 7,6 C 4,8 km/h (1 Bft)
31/10/2020 05:45 4,4 C 96 % 1024,4 hPa 0,0 l/m 0,0 km/h (0 Bft) N 0 0 min 0 W/m 3,8 C 4,4 C 0,0 km/h (0 Bft)
31/10/2020 04:30 3,4 C 95 % 1024,6 hPa 0,2 l/m 0,0 km/h (0 Bft) N 0 0 min 0 W/m 2,7 C 3,4 C 0,0 km/h (0 Bft)
31/10/2020 03:15 5,0 C 95 % 1025,2 hPa 0,0 l/m 0,0 km/h (0 Bft) N 0 0 min 0 W/m 4,3 C 5,0 C 0,0 km/h (0 Bft)
31/10/2020 02:00 4,1 C 95 % 1025,8 hPa 0,0 l/m 0,0 km/h (0 Bft) N 0 0 min 0 W/m 3,4 C 4,1 C 0,0 km/h (0 Bft)
31/10/2020 00:45 4,7 C 94 % 1026,2 hPa 0,0 l/m 0,0 km/h (0 Bft) N 0 0 min 0 W/m 3,8 C 4,7 C 0,0 km/h (0 Bft)
30/10/2020 23:30 5,5 C 95 % 1026,0 hPa 0,0 l/m 0,0 km/h (0 Bft) N 0 0 min 0 W/m 4,8 C 5,5 C 0,0 km/h (0 Bft)
30/10/2020 22:45 6,3 C 94 % 1026,3 hPa 0,0 l/m 0,0 km/h (0 Bft) SO 228 0 min 0 W/m 5,4 C 6,3 C 0,0 km/h (0 Bft)
30/10/2020 22:20 6,8 C 93 % 1026,4 hPa 0,0 l/m 0,0 km/h (0 Bft) SO 228 0 min 0 W/m 5,7 C 6,8 C 0,0 km/h (0 Bft)
30/10/2020 21:55 7,2 C 94 % 1026,5 hPa 0,0 l/m 0,0 km/h (0 Bft) SO 228 0 min 0 W/m 6,3 C 7,2 C 0,0 km/h (0 Bft)
30/10/2020 21:30 7,6 C 94 % 1026,7 hPa 0,0 l/m 0,0 km/h (0 Bft) SO 228 0 min 0 W/m 6,7 C 7,6 C 0,0 km/h (0 Bft)
30/10/2020 21:05 8,1 C 93 % 1026,4 hPa 0,0 l/m 0,0 km/h (0 Bft) SO 228 0 min 0 W/m 7,0 C 8,1 C 0,0 km/h (0 Bft)
30/10/2020 20:40 8,6 C 94 % 1026,5 hPa 0,0 l/m 0,0 km/h (0 Bft) SO 228 0 min 0 W/m 7,7 C 8,6 C 0,0 km/h (0 Bft)
30/10/2020 20:15 8,6 C 94 % 1026,8 hPa 0,0 l/m 0,0 km/h (0 Bft) SO 228 0 min 0 W/m 7,7 C 8,6 C 0,0 km/h (0 Bft)
30/10/2020 19:50 8,3 C 94 % 1026,9 hPa 0,0 l/m 0,0 km/h (0 Bft) SO 228 0 min 0 W/m 7,4 C 8,3 C 0,0 km/h (0 Bft)
30/10/2020 19:25 8,4 C 92 % 1027,1 hPa 0,0 l/m 0,0 km/h (0 Bft) SO 228 0 min 0 W/m 7,2 C 8,4 C 0,0 km/h (0 Bft)
30/10/2020 19:00 8,9 C 92 % 1027,0 hPa 0,0 l/m 0,0 km/h (0 Bft) SO 228 0 min 0 W/m 7,7 C 8,9 C 0,0 km/h (0 Bft)
30/10/2020 18:35 9,5 C 90 % 1026,8 hPa 0,0 l/m 0,0 km/h (0 Bft) SO 228 0 min 0 W/m 7,9 C 9,5 C 0,0 km/h (0 Bft)
30/10/2020 18:10 10,4 C 90 % 1026,4 hPa 0,0 l/m 0,0 km/h (0 Bft) SO 228 0 min 0 W/m 8,8 C 10,4 C 0,0 km/h (0 Bft)
30/10/2020 17:45 11,2 C 89 % 1026,3 hPa 0,0 l/m 0,0 km/h (0 Bft) SO 228 0 min 0 W/m 9,5 C 11,2 C 0,0 km/h (0 Bft)
30/10/2020 17:20 12,2 C 87 % 1026,0 hPa 0,0 l/m 0,0 km/h (0 Bft) SO 228 0 min 0 W/m 10,1 C 12,2 C 0,0 km/h (0 Bft)
30/10/2020 16:55 12,7 C 85 % 1026,1 hPa 0,0 l/m 0,0 km/h (0 Bft) SO 228 0 min 12 W/m 10,2 C 12,7 C 0,0 km/h (0 Bft)
30/10/2020 16:30 12,9 C 82 % 1026,1 hPa 0,0 l/m 0,0 km/h (0 Bft) SO 228 0 min 21 W/m 9,9 C 12,9 C 0,0 km/h (0 Bft)
30/10/2020 16:05 13,1 C 81 % 1026,2 hPa 0,0 l/m 2,6 km/h (1 Bft) SO 228 0 min 42 W/m 9,9 C 13,1 C 6,4 km/h (2 Bft)
30/10/2020 15:40 13,2 C 80 % 1026,1 hPa 0,0 l/m 3,0 km/h (1 Bft) SO 229 0 min 74 W/m 9,8 C 13,2 C 8,0 km/h (2 Bft)
30/10/2020 15:15 13,3 C 80 % 1026,1 hPa 0,0 l/m 0,7 km/h (0 Bft) O 261 0 min 125 W/m 9,9 C 13,3 C 4,8 km/h (1 Bft)
30/10/2020 14:50 13,1 C 81 % 1026,2 hPa 0,0 l/m 6,5 km/h (2 Bft) S-SO 201 10 min 111 W/m 9,9 C 13,1 C 16,1 km/h (3 Bft)
30/10/2020 14:25 12,9 C 84 % 1026,2 hPa 0,0 l/m 3,6 km/h (1 Bft) O-SO 254 15 min 120 W/m 10,3 C 12,9 C 9,7 km/h (2 Bft)
30/10/2020 14:00 12,9 C 87 % 1026,3 hPa 0,0 l/m 0,3 km/h (0 Bft) O 276 20 min 162 W/m 10,8 C 12,9 C 4,8 km/h (1 Bft)
30/10/2020 13:35 12,6 C 89 % 1026,2 hPa 0,0 l/m 3,6 km/h (1 Bft) O-SO 254 5 min 149 W/m 10,8 C 12,6 C 12,9 km/h (3 Bft)
30/10/2020 13:10 12,2 C 90 % 1026,3 hPa 0,0 l/m 3,4 km/h (1 Bft) SO 220 0 min 97 W/m 10,6 C 12,2 C 12,9 km/h (3 Bft)
30/10/2020 12:45 12,2 C 92 % 1026,4 hPa 0,0 l/m 0,1 km/h (0 Bft) O-SO 246 5 min 40 W/m 10,9 C 12,2 C 1,6 km/h (1 Bft)
30/10/2020 12:20 12,2 C 91 % 1026,5 hPa 0,0 l/m 0,0 km/h (0 Bft) S-SO 205 15 min 35 W/m 10,8 C 12,2 C 0,0 km/h (0 Bft)
30/10/2020 11:55 12,3 C 92 % 1026,5 hPa 0,0 l/m 2,1 km/h (1 Bft) SO 220 20 min 97 W/m 11,0 C 12,3 C 11,3 km/h (2 Bft)
30/10/2020 11:30 11,9 C 92 % 1026,5 hPa 0,0 l/m 3,5 km/h (1 Bft) O 263 10 min 142 W/m 10,6 C 11,9 C 16,1 km/h (3 Bft)
30/10/2020 11:05 11,7 C 92 % 1026,7 hPa 0,0 l/m 4,6 km/h (1 Bft) O-SO 241 10 min 183 W/m 10,4 C 11,7 C 16,1 km/h (3 Bft)
30/10/2020 10:40 11,5 C 94 % 1026,6 hPa 0,0 l/m 7,3 km/h (2 Bft) O 261 0 min 104 W/m 10,6 C 10,9 C 17,7 km/h (3 Bft)
30/10/2020 10:15 11,4 C 94 % 1026,5 hPa 0,0 l/m 5,9 km/h (2 Bft) O-SO 248 0 min 67 W/m 10,5 C 11,4 C 12,9 km/h (3 Bft)
30/10/2020 09:50 11,2 C 95 % 1026,2 hPa 0,0 l/m 6,2 km/h (2 Bft) S-SO 196 0 min 84 W/m 10,4 C 11,2 C 16,1 km/h (3 Bft)
30/10/2020 09:25 11,2 C 95 % 1026,3 hPa 0,0 l/m 3,6 km/h (1 Bft) S 190 0 min 83 W/m 10,4 C 11,2 C 14,5 km/h (3 Bft)
30/10/2020 09:00 11,1 C 96 % 1026,3 hPa 0,0 l/m 2,1 km/h (1 Bft) SO 221 0 min 46 W/m 10,5 C 11,1 C 11,3 km/h (2 Bft)
_ Min-Heure 04:15 15:00 06:45 - 12:20 - - - - 04:15 04:15 12:20
Minimum _ 3,4 C 79 % 1024,2 hPa - 0,0 km/h (0 Bft) - - - - 2,7 C 3,4 C 0,0 km/h (0 Bft)
_ Max-Heure 15:15 07:00 19:10 04:15 09:40 - - 10:50 13:50 11:55 15:15 09:45
Maximum _ 13,3 C 98 % 1027,1 hPa 0,2 l/m 8,8 km/h
SO (2 Bft)
- - 5 min 202 W/m 11,0 C 13,3 C 25,7 km/h
SO (4 Bft)
Moyenne _ 8,7 C 92 % 1026,0 hPa #0,2 l/m 1,1 km/h (0 Bft) O-SO - #0 min. 11 W/m 7,5 C 8,7 C 4,4 km/h (1 Bft)